パンスターズ彗星

426P/PanSTARRS (2023)

English version
Home page
Updated on January 31, 2024

---------------------------------------------------------------------

・ プロフィール

符号 426P/2021 K4
検出日 2021年5月17日
検出光度 22.2等
検出者 M. Micheli, H. H. Hsieh, J. Chavez (Gemini South telescope at Cerro Pachon, Chile)

・ 軌道要素

Epoch 2023 Sept. 13.0 TT = JDT 2460200.5
T 2023 Sept. 12.16496 TT                                Rudenko
q   2.6737872            (2000.0)            P               Q
n   0.17294465     Peri.  118.77233     +0.73381509     -0.60946565
a   3.1905432      Node   280.42877     +0.46654920     +0.77322447
e   0.1619649      Incl.   17.76735     +0.49380893     +0.17514432
P   5.70
>From 90 observations 2019 Jan. 8-2023 Dec. 13, mean residual 0".4.

・ 光度変化

        m1 = 14.0 + 5 logΔ + 10.0 log r

---------------------------------------------------------------------

軌道要素はM.P.E.C. 2024-A43に掲載されたものです。
光度グラフはComet for Windowsで作成したものです。

---------------------------------------------------------------------

Copyright(C) Seiichi Yoshida (comet@aerith.net). All rights reserved.